Location: Bremen
(53.0793°N, 8.8017°E)
Time: 07:04:30
(UTC+01:00)

Tiros 1 - Pass Details

Date: 12 December 2021
Orbit: 629 x 664 km, 48.4° (Epoch: 25 January)

Event Time Altitude Azimuth Distance (km) Brightness Sun altitude
Rises 18:07:55 0° 254° (WSW) 2,916 12.3 -16.7°
Reaches altitude 10° 18:10:17 10° 249° (WSW) 2,012 11.0 -17.1°
Maximum altitude 18:14:43 47° 175° (S) 840 7.8 -17.7°
Enters shadow 18:16:52 27° 117° (ESE) 1,222 8.2 -18.0°
